When you browse on this site, cookies collect data to enhance your experience and personalize the content and advertising you see.
Visit our Privacy Policy to learn more. By continuing to use the site, you agree to this use of cookies and data.
  • In Spain
  • List of Countries
  • For 7 days
  • Water Temperature
  • Satellite Maps
  • Weather Map
  • Weather Widgets
  • user-avatar
    Login

    Hourly Weather Barkashni

    Today, 18 July, Thursday

    Time Temperature Precipitation Wind Pressure Humidity
    00:00 +13°C° 0.2 mm 1 mps 737 mmHg 88%
    01:00 +13°C° 0.2 mm 2 mps 736 mmHg 91%
    02:00 +13°C° 0 mm 2 mps 737 mmHg 95%
    03:00 +13°C° 0.3 mm 2 mps 736 mmHg 96%
    04:00 +13°C° 0.3 mm 1 mps 736 mmHg 97%
    05:00 +13°C° 0.3 mm 1 mps 736 mmHg 98%
    06:00 +14°C° 0.8 mm 2 mps 736 mmHg 97%
    07:00 +14°C° 0.8 mm 2 mps 736 mmHg 97%
    08:00 +14°C° 0.8 mm 2 mps 736 mmHg 96%
    09:00 +14°C° 0.5 mm 2 mps 736 mmHg 96%
    10:00 +13°C° 0.5 mm 3 mps 736 mmHg 96%
    11:00 +13°C° 0.5 mm 3 mps 736 mmHg 96%
    12:00 +13°C° 0.2 mm 4 mps 736 mmHg 95%
    13:00 +13°C° 0.2 mm 4 mps 736 mmHg 94%
    14:00 +13°C° 0.2 mm 4 mps 736 mmHg 94%
    15:00 +13°C° 0.3 mm 4 mps 736 mmHg 94%
    16:00 +13°C° 0.3 mm 4 mps 736 mmHg 95%
    17:00 +13°C° 0.3 mm 4 mps 736 mmHg 96%
    18:00 +13°C° 0.2 mm 4 mps 736 mmHg 96%
    19:00 +13°C° 0.2 mm 4 mps 736 mmHg 97%
    20:00 +13°C° 0.2 mm 4 mps 736 mmHg 97%
    21:00 +13°C° 0.7 mm 4 mps 736 mmHg 97%
    22:00 +13°C° 0.7 mm 4 mps 736 mmHg 98%
    23:00 +13°C° 0.7 mm 4 mps 736 mmHg 98%

    Tomorrow, 19 July, Friday

    Time Temperature Precipitation Wind Pressure Humidity
    00:00 +13°C° 0.9 mm 4 mps 736 mmHg 98%
    01:00 +13°C° 0.9 mm 4 mps 736 mmHg 98%
    02:00 +13°C° 0.9 mm 4 mps 736 mmHg 97%
    03:00 +13°C° 0.7 mm 4 mps 737 mmHg 97%
    04:00 +13°C° 0.7 mm 5 mps 737 mmHg 97%
    05:00 +13°C° 0.7 mm 5 mps 737 mmHg 97%
    06:00 +14°C° 0.9 mm 5 mps 737 mmHg 97%
    07:00 +14°C° 0.9 mm 5 mps 738 mmHg 97%
    08:00 +14°C° 0.9 mm 5 mps 738 mmHg 96%
    09:00 +14°C° 0.3 mm 5 mps 738 mmHg 96%
    10:00 +14°C° 0.3 mm 5 mps 739 mmHg 95%
    11:00 +15°C° 0.3 mm 6 mps 739 mmHg 94%
    12:00 +15°C° 0.1 mm 6 mps 739 mmHg 92%
    13:00 +16°C° 0.1 mm 6 mps 739 mmHg 89%
    14:00 +16°C° 0.1 mm 6 mps 740 mmHg 86%
    15:00 +16°C° 0 mm 6 mps 740 mmHg 83%
    16:00 +17°C° 0 mm 6 mps 741 mmHg 80%
    17:00 +17°C° 0 mm 5 mps 741 mmHg 77%
    18:00 +16°C° 0 mm 5 mps 741 mmHg 81%
    19:00 +15°C° 0 mm 4 mps 741 mmHg 86%
    20:00 +14°C° 0 mm 3 mps 741 mmHg 90%
    21:00 +14°C° 0 mm 3 mps 742 mmHg 89%
    22:00 +14°C° 0 mm 3 mps 742 mmHg 88%
    23:00 +14°C° 0 mm 4 mps 742 mmHg 87%

    Day after tomorrow, 20 July, Saturday

    Time Temperature Precipitation Wind Pressure Humidity
    00:00 +13°C° 0 mm 4 mps 742 mmHg 88%
    01:00 +13°C° 0 mm 4 mps 743 mmHg 89%
    02:00 +13°C° 0 mm 3 mps 743 mmHg 90%
    03:00 +13°C° 0 mm 3 mps 743 mmHg 90%
    04:00 +13°C° 0 mm 3 mps 743 mmHg 91%
    05:00 +13°C° 0 mm 3 mps 743 mmHg 92%
    06:00 +14°C° 0 mm 4 mps 744 mmHg 88%
    07:00 +15°C° 0 mm 4 mps 744 mmHg 84%
    08:00 +17°C° 0 mm 4 mps 744 mmHg 80%
    09:00 +19°C° 0 mm 4 mps 745 mmHg 75%
    10:00 +20°C° 0 mm 5 mps 745 mmHg 69%
    11:00 +21°C° 0 mm 5 mps 745 mmHg 63%
    12:00 +22°C° 0.1 mm 5 mps 745 mmHg 63%
    13:00 +22°C° 0.1 mm 5 mps 745 mmHg 63%
    14:00 +22°C° 0.1 mm 6 mps 746 mmHg 63%
    15:00 +22°C° 0 mm 5 mps 746 mmHg 65%
    16:00 +22°C° 0 mm 5 mps 746 mmHg 67%
    17:00 +22°C° 0 mm 4 mps 746 mmHg 70%
    18:00 +20°C° 0.1 mm 4 mps 746 mmHg 76%
    19:00 +19°C° 0.1 mm 3 mps 746 mmHg 82%
    20:00 +17°C° 0.1 mm 2 mps 746 mmHg 88%
    21:00 +16°C° 0 mm 2 mps 746 mmHg 90%
    22:00 +15°C° 0 mm 2 mps 747 mmHg 92%
    23:00 +15°C° 0 mm 2 mps 747 mmHg 93%

    21 July, Sunday

    Time Temperature Precipitation Wind Pressure Humidity
    00:00 +14°C° 0 mm 2 mps 747 mmHg 93%
    01:00 +14°C° 0 mm 2 mps 747 mmHg 92%
    02:00 +13°C° 0 mm 2 mps 747 mmHg 92%
    03:00 +13°C° 0 mm 2 mps 747 mmHg 92%
    04:00 +13°C° 0 mm 2 mps 747 mmHg 92%
    05:00 +13°C° 0 mm 2 mps 747 mmHg 92%
    06:00 +15°C° 0 mm 2 mps 747 mmHg 87%
    07:00 +17°C° 0 mm 2 mps 747 mmHg 82%
    08:00 +19°C° 0 mm 2 mps 748 mmHg 77%
    09:00 +20°C° 0 mm 2 mps 748 mmHg 72%
    10:00 +23°C° 0 mm 2 mps 748 mmHg 67%
    11:00 +24°C° 0 mm 3 mps 748 mmHg 61%
    12:00 +24°C° 0 mm 3 mps 747 mmHg 60%
    13:00 +25°C° 0 mm 3 mps 747 mmHg 58%
    14:00 +25°C° 0 mm 3 mps 747 mmHg 56%
    15:00 +25°C° 0 mm 2 mps 747 mmHg 59%
    16:00 +25°C° 0 mm 2 mps 747 mmHg 61%
    17:00 +25°C° 0 mm 2 mps 747 mmHg 63%
    18:00 +23°C° 0 mm 1 mps 747 mmHg 70%
    19:00 +21°C° 0 mm 1 mps 746 mmHg 77%
    20:00 +19°C° 0 mm 1 mps 746 mmHg 84%
    21:00 +19°C° 0 mm 1 mps 746 mmHg 86%
    22:00 +18°C° 0 mm 1 mps 746 mmHg 88%
    23:00 +16°C° 0 mm 1 mps 746 mmHg 90%

    22 July, Monday

    Time Temperature Precipitation Wind Pressure Humidity
    00:00 +16°C° 0 mm 1 mps 746 mmHg 91%
    01:00 +16°C° 0 mm 1 mps 746 mmHg 92%
    02:00 +15°C° 0 mm 1 mps 745 mmHg 93%
    03:00 +15°C° 0 mm 2 mps 745 mmHg 93%
    04:00 +16°C° 0 mm 2 mps 745 mmHg 92%
    05:00 +16°C° 0 mm 2 mps 745 mmHg 92%
    06:00 +17°C° 0 mm 2 mps 745 mmHg 88%
    07:00 +19°C° 0 mm 2 mps 745 mmHg 84%
    08:00 +20°C° 0 mm 2 mps 745 mmHg 79%
    09:00 +20°C° 0.4 mm 2 mps 745 mmHg 81%
    10:00 +21°C° 0.4 mm 2 mps 744 mmHg 82%
    11:00 +21°C° 0.4 mm 2 mps 744 mmHg 83%
    12:00 +22°C° 0.3 mm 1 mps 744 mmHg 85%
    13:00 +21°C° 0.3 mm 1 mps 744 mmHg 86%
    14:00 +21°C° 0.3 mm 1 mps 744 mmHg 88%
    15:00 +19°C° 0.1 mm 0 mps 744 mmHg 89%
    16:00 +18°C° 0.1 mm 0 mps 744 mmHg 90%
    17:00 +18°C° 0.1 mm 0 mps 744 mmHg 90%
    18:00 +17°C° 0 mm 0 mps 744 mmHg 90%
    19:00 +17°C° 0 mm 0 mps 744 mmHg 90%
    20:00 +17°C° 0 mm 0 mps 744 mmHg 90%
    21:00 +16°C° 0 mm 0 mps 744 mmHg 91%
    22:00 +16°C° 0 mm 0 mps 744 mmHg 92%
    23:00 +15°C° 0 mm 0 mps 744 mmHg 93%

    23 July, Tuesday

    Time Temperature Precipitation Wind Pressure Humidity
    00:00 +16°C° 0 mm 1 mps 744 mmHg 93%
    01:00 +15°C° 0 mm 1 mps 745 mmHg 94%
    02:00 +15°C° 0 mm 1 mps 745 mmHg 95%
    03:00 +15°C° 0 mm 1 mps 745 mmHg 95%
    04:00 +15°C° 0 mm 1 mps 745 mmHg 96%
    05:00 +15°C° 0 mm 1 mps 745 mmHg 97%
    06:00 +17°C° 0 mm 2 mps 745 mmHg 91%
    07:00 +18°C° 0 mm 2 mps 745 mmHg 85%
    08:00 +20°C° 0 mm 2 mps 745 mmHg 80%
    09:00 +21°C° 0 mm 2 mps 746 mmHg 72%
    10:00 +22°C° 0 mm 3 mps 746 mmHg 64%
    11:00 +25°C° 0 mm 3 mps 746 mmHg 56%
    12:00 +25°C° 0 mm 3 mps 746 mmHg 54%
    13:00 +25°C° 0 mm 3 mps 746 mmHg 53%
    14:00 +25°C° 0 mm 4 mps 746 mmHg 51%
    15:00 +25°C° 0 mm 4 mps 745 mmHg 54%
    16:00 +23°C° 0 mm 4 mps 745 mmHg 57%
    17:00 +22°C° 0 mm 4 mps 745 mmHg 61%
    18:00 +21°C° 0 mm 3 mps 745 mmHg 66%
    19:00 +19°C° 0 mm 3 mps 745 mmHg 72%
    20:00 +17°C° 0 mm 2 mps 745 mmHg 77%
    21:00 +16°C° 0 mm 2 mps 746 mmHg 79%
    22:00 +15°C° 0 mm 2 mps 746 mmHg 81%
    23:00 +15°C° 0 mm 2 mps 746 mmHg 83%
    Show more